This demonstration page uses our WeatherBlox Daily Observations layout. Learn more.

Left ArrowRight Arrow

Hourly Observations for May 19, 2015

Temp ( °F °C ) Dew Point ( °F °C ) Humidity (%) Winds ( mph kmh ) Pressure ( in mb ) Visibility ( mi km ) Precip ( " mm )
12:53 am 00:53 Cloudy 65 18.3 53 11.7 66 66 WNW 3 6 30.00 1016 10 16 0.00 0.00
1:53 am 01:53 Cloudy 64 17.8 54 12.2 70 70 W 6 9 29.99 1016 10 16 0.00 0.00
2:53 am 02:53 Cloudy 64 17.8 53 11.7 68 68 W 3 6 30.00 1016 10 16 0.00 0.00
3:53 am 03:53 Cloudy 63 17.2 51 10.6 65 65 S 6 9 30.00 1016 10 16 0.00 0.00
4:53 am 04:53 Cloudy 62 16.7 51 10.6 67 67 S 5 7 30.01 1016 10 16 0.00 0.00
5:53 am 05:53 Cloudy 60 15.6 51 10.6 72 72 SSE 8 13 30.02 1017 10 16 0.00 0.00
6:53 am 06:53 Cloudy 59 15 51 10.6 75 75 SSE 6 9 30.04 1017 10 16 0.00 0.00
7:53 am 07:53 Cloudy 60 15.6 51 10.6 72 72 S 7 11 30.04 1017 10 16 0.00 0.00
8:53 am 08:53 Cloudy 62 16.7 51 10.6 67 67 SSE 6 9 30.04 1017 10 16 0.00 0.00
9:53 am 09:53 Sunny 64 17.8 51 10.6 63 63 Calm 30.04 1017 10 16 0.00 0.00
10:53 am 10:53 Sunny 67 19.4 51 10.6 57 57 VRB 3 6 30.03 1017 10 16 0.00 0.00
11:53 am 11:53 Cloudy 70 21.1 51 10.6 51 51 VRB 5 7 30.01 1016 10 16 0.00 0.00
12:53 pm 12:53 Cloudy 72 22.2 50 10 46 46 VRB 5 7 29.99 1016 10 16 0.00 0.00
1:53 pm 13:53 Cloudy 76 24.4 49 9.4 39 39 undefined N/A 29.96 1015 10 16 0.00 0.00
2:53 pm 14:53 Mostly Sunny 77 25 49 9.4 37 37 S 8 13 29.94 1014 10 16 0.00 0.00
3:53 pm 15:53 Mostly Sunny 77 25 48 8.9 36 36 SSW 9 15 29.91 1013 10 16 0.00 0.00
4:53 pm 16:53 Mostly Sunny 78 25.6 47 8.3 33 33 SSE 8 13 29.89 1012 10 16 0.00 0.00
5:53 pm 17:53 Mostly Sunny 77 25 47 8.3 35 35 S 10 17 29.88 1012 10 16 0.00 0.00
6:53 pm 18:53 Partly Cloudy 76 24.4 48 8.9 37 37 SSE 8 13 29.88 1012 10 16 0.00 0.00
7:53 pm 19:53 Mostly Sunny 74 23.3 49 9.4 41 41 S 7 11 29.88 1012 10 16 0.00 0.00
8:53 pm 20:53 Mostly Cloudy 72 22.2 49 9.4 44 44 VRB 3 6 29.88 1012 10 16 0.00 0.00
9:53 pm 21:53 Cloudy 70 21.1 53 11.7 55 55 SW 3 6 29.90 1012 10 16 0.00 0.00
10:53 pm 22:53 Cloudy 68 20 53 11.7 59 59 NW 5 7 29.90 1012 10 16 0.00 0.00
11:53 pm 23:53 Cloudy 67 19.4 53 11.7 61 61 WNW 3 6 29.90 1013 10 16 0.00 0.00

Powered by AerisWeather